www.pogodaiklimat.ru

Погода и климат >> Архив погоды >> Россия >> Мурманская область >> Сосновец Остров


АРХИВ ПОГОДЫ на Сосновец Острове

Время (UTC), дата Ветер
(напр.,м/с)
 
Видим.   Явления Облачность Т
(С)
Тd
(С)
f
(%)
Тe
(С)
Тes
(С)
Комфортность P
(гПа)
Po
(гПа)
Тmin
(С)
Tmax
(С)
R
(мм)
R24
(мм)
S
(см)
18 14.05 С 6 20 км 9/3 600 м
[Sc Ac trans]
+4.9 +1.2 77 -0 -0 1021.2 1019.0
21 14.05 СЗ 8
{11}
4000 м слаб. ливневой дождь 10/10 300 м
[Cb cap]
+5.3 +3.8 90 -1 -1 1018.9 1016.7
00 15.05 СЗ 6
{11}
4000 м слаб. ливневой дождь 10/10 300 м
[Cb cap]
+2.8 +1.2 89 -3 -3 1018.6 1016.4
03 15.05 З 4
{10}
20 км {ливн. осадки} 10/8 300 м
[Sc Ac und]
+2.7 +1.5 92 -2 -2 1018.7 1016.5 +2.3 0.5
06 15.05 СЗ 8
{11}
20 км {ливн. осадки} 9/9 600 м
[Sc]
+4.7 +1.7 81 -1 -1 1018.8 1016.6
09 15.05 С 8
{16}
20 км 9/9 600 м
[Sc]
+6.1 +0.6 68 +1 +1 1021.2 1019.0
12 15.05 ЮЗ 7
{13}
10 км осадки на расстоянии {ливн. осадки} 8/8 300 м
[Cb calv]
+4.4 +1.4 81 -1 -1 1022.4 1020.1
15 15.05 З 5
{10}
4000 м слаб. ливневой дождь 10/10 300 м
[Cb cap]
+3.7 +2.4 91 -2 -2 1023.2 1021.0 +8.5 0.3
18 15.05 СЗ 6 4000 м слаб. ливневой дождь 8/8 300 м
[Cb calv]
+4.3 +1.7 83 -1 -1 1023.4 1021.2
21 15.05 СЗ 2 20 км {ливн. осадки} ясно +1.3 0.0 91 -2 -2 1024.3 1022.0
00 16.05 З 5 20 км {ливн. осадки} 3/0
[Ac trans]
+1.0 -0.9 87 -5 -5 1024.8 1022.5
03 16.05 З 5 20 км 4/0
[Ac trans]
+2.3 -0.3 83 -3 -2 1024.8 1022.6 +0.7 0.4
06 16.05 СЗ 7-11
{11}
20 км 8/8 300 м
[Sc]
+5.6 -3.2 53 +1 +1 1024.2 1022.0
09 16.05 СЗ 8-10
{12}
20 км 9/9 300 м
[Sc]
+5.9 -1.5 59 +1 +1 1023.6 1021.4
12 16.05 Ю 5
{10}
20 км 8/8 300 м
[Sc]
+5.3 -0.1 68 +1 +2 1022.7 1020.4
15 16.05 ЮЗ 6
{11}
20 км 8/8 300 м
[Sc]
+3.1 +0.9 85 -3 -2 1021.0 1018.7 +7.7
18 16.05 З 6 20 км 10/6 300 м
[Sc Ac und]
+5.4 +1.0 73 +1 +1 1018.8 1016.6
21 16.05 СЗ 8-10
{10}
20 км 10/10 300 м
[Sc]
+4.7 +1.0 77 -1 -1 1018.0 1015.7
00 17.05 С 8-11
{12}
20 км 9/6 300 м
[Sc Ac trans]
+2.4 +0.6 88 -4 -4 1017.1 1014.9
03 17.05 СЗ 10-13
{14}
20 км 8/8 300 м
[Sc]
+3.2 -0.8 75 -4 -4 1016.9 1014.7 +2.1
06 17.05 СЗ 11-14
{18}
20 км 9/9 300 м
[Sc]
+3.8 -0.8 72 -3 -3 1017.8 1015.6
09 17.05 СЗ 10-12
{14}
20 км 10/10 300 м
[Sc]
+3.7 -0.7 73 -3 -3 1019.2 1017.0
12 17.05 СЗ 9-11
{12}
20 км 10/10 300 м
[Sc]
+4.7 -0.9 67 -1 -1 1019.5 1017.3
15 17.05 СЗ 9-15
{17}
20 км 10/10 300 м
[Sc]
+4.1 -0.1 74 -2 -2 1019.6 1017.4 +5.6
18 17.05 СЗ 7
{16}
20 км 10/10 300 м
[Sc]
+3.3 -0.6 76 -3 -3 1019.0 1016.8
21 17.05 СЗ 8-11
{16}
20 км 10/10 300 м
[Sc]
+2.6 -0.3 81 -4 -4 1017.7 1015.5
00 18.05 СЗ 11-15
{15}
20 км 10/10 300 м
[Sc]
+2.6 -0.9 78 -5 -5 1016.4 1014.1
03 18.05 СЗ 11-14
{16}
20 км 10/10 600 м
[Sc]
+2.7 -0.8 78 -5 -5 1016.3 1014.1 +2.1
06 18.05 С 10
{15}
20 км 10/10 600 м
[Sc]
+3.0 -0.4 78 -4 -4 1017.2 1015.0
09 18.05 С 9
{15}
20 км осадки на расстоянии {ливн. осадки} 9/9 300 м
[Cb calv]
+4.1 -0.3 73 -2 -2 1018.5 1016.3
12 18.05 С 9
{17}
20 км осадки на расстоянии {ливн. осадки} 9/9 300 м
[Cb calv]
+4.2 -0.4 72 -2 -2 1019.5 1017.3
15 18.05 С 5
{13}
20 км осадки на расстоянии {ливн. осадки} 10/10 300 м
[Cb calv]
+2.6 -0.1 82 -3 -3 1021.0 1018.8 +4.8 0.4
18 18.05 С 7
{15}
20 км осадки на расстоянии {ливн. осадки} 10/10 300 м
[Cb calv]
+1.6 +0.1 90 -5 -5 1021.2 1019.0
21 18.05 СЗ 5
{10}
20 км 6/3 600 м
[Sc Ac trans]
+0.8 -1.1 87 -5 -5 1021.5 1019.2
00 19.05 С 10
{12}
20 км 9/9 600 м
[Sc]
+1.0 -1.4 84 -7 -7 1021.7 1019.5
03 19.05 С 8
{12}
20 км 8/8 600 м
[Sc]
+2.5 -0.8 79 -4 -4 1022.3 1020.1 +0.5 0.1
06 19.05 С 8-11
{12}
20 км 10/10 600 м
[Sc]
+3.3 -0.2 78 -3 -3 1023.3 1021.1
12 19.05 СВ 4 20 км 6/6 600 м
[Sc]
+3.8 +0.7 80 -1 +2 1024.6 1022.4
15 19.05 СВ 3 20 км 6/6 600 м
[Sc]
+3.4 +0.6 82 -0 +1 1024.9 1022.7 +6.0
18 19.05 С 5 20 км 8/8 600 м
[Sc]
+2.8 -0.5 79 -2 -2 1024.7 1022.5
21 19.05 С 3 20 км 8/8 600 м
[Sc]
+0.2 -1.3 90 -5 -5 1025.0 1022.7
00 20.05 С 3 20 км 4/4 600 м
[Sc]
+0.1 -7.6 56 -4 -4 1025.6 1023.3
03 20.05 С 5 20 км 9/9 600 м
[Sc]
+0.7 -1.7 84 -5 -5 1026.0 1023.7 -0.6
06 20.05 В 2 20 км 3/3 600 м
[Sc]
+2.8 -1.8 72 0 +5 1026.3 1024.0
09 20.05 ЮВ 2 20 км 1/1 600 м
[Sc]
+3.4 -0.5 76 +1 +10 опасность
простуды
1026.3 1024.1
12 20.05 В 2 20 км 1/1 600 м
[Sc]
+3.0 -0.2 79 0 +8 1026.2 1024.0
15 20.05 СВ 2 20 км ясно +2.7 -0.1 82 -0 +3 1025.3 1023.1 +3.7
18 20.05 С 3 20 км ясно +1.3 -0.1 90 -3 -3 1024.4 1022.1
21 20.05 С 3 20 км ясно +0.1 -1.5 89 -5 -5 1023.5 1021.3
00 21.05 СВ 3 20 км ясно +0.3 -3.4 76 -4 -4 1023.3 1021.0
03 21.05 СВ 1 20 км ясно +1.8 -1.3 80 0 +3 1022.7 1020.4 -1.3
06 21.05 ЮВ 1 20 км 3/0
[Cs]
+3.2 +0.6 83 +2 +10 опасность
простуды
1022.0 1019.7
09 21.05 В 2 20 км 4/0
[Ac trans Cs]
+4.1 +1.1 81 +1 +10 опасность
простуды
1021.1 1018.9
12 21.05 В 2 20 км 9/0
[Ac As]
+4.0 -0.2 74 +1 +5 1020.0 1017.8
15 21.05 СВ 4 20 км 10/8 600 м
[Sc Ac As]
+3.6 +0.4 80 -1 -1 1018.5 1016.3 +5.8

 

Местоположение метеостанции Сосновец Остров (Мурманская область, Россия): широта 66.48 долгота 40.68 высота над уровнем моря 18 м.

В архиве по умолчанию представлена погода на Сосновец Острове за последнюю неделю. Архивные данные за месяц целиком и за предыдущие месяцы, начиная с января 2011 года, Вы можете получить, выбрав интересующий диапазон дат из раскрывающегося списка и нажав кнопку "Ввод!".


*Определитесь, кто Вы:
робот инопланетянин человек

Внимание! Время в таблицах - всемирное. Для получения местного времени необходимо прибавить поправку, которая равна 3 ч.

Смотрите также архив погоды в соседних городах и на ближайших метеорологических станциях:

Погода в Пялице (Мурманская область, Россия) (61 км)
Погода на Моржовец Острове (Архангельская область, Россия) (84 км)
Погода в Каневке (Мурманская область, Россия) (85 км)
Погода в Абрамовском маяке (Архангельская область, Россия) (115 км)
Погода в Зимнегорском Маяке (Архангельская область, Россия) (121 км)
Погода в Кепино (Архангельская область, Россия) (133 км)
Погода на Чаваньга реке (Мурманская область, Россия) (138 км)
Погода в Мезене (Архангельская область, Россия) (173 км)
Погода в Неси (Ненецкий АО, Россия) (178 км)
Погода в Иоканьге (Мурманская область, Россия) (182 км)

Пояснения к столбцам:

Ветер - указаны скорость ветра в м/с - средняя за 10 мин, порывы в срок и между сроками (в фигурных скобках) и направление, откуда дует ветер: С - северный, СВ - северо-восточный, В - восточный, ЮВ - юго-восточный, Ю - южный, ЮЗ - юго-западный, З - западный, СЗ - северо-западный.
Видимость - горизонтальная дальность видимости в метрах или километрах. При видимости от 1 до 10 км при отсутствии осадков обычно наблюдается дымка, при ухудшении видимости до 1 км и менее - туман. В сухую погоду видимость может ухудшаться дымом, пылью или мглою.
Явления - указаны атмосферные явления, наблюдавшиеся в срок или в последний час перед сроком; фигурными скобками обозначены явления, наблюдавшиеся между сроками (за 1-3 часа до срока); квадратными скобками обозначены град или гололедные отложения с указанием их диаметра в мм.
Облачность - указаны через наклонную черту общая и нижняя облачность в баллах и высота нижней границы облаков в метрах; квадратными скобками обозначены формы облаков: Ci - перистые, Cs - перисто-слоистые, Cc - перисто-кучевые, Ac - высококучевые, As - высокослоистые, Sc - слоисто-кучевые, Ns - слоисто-дождевые, Cu - кучевые, Cb - кучево-дождевые. Подробнее классификацию облаков см. в Атласе облаков (PDF).
T - Температура воздуха - температура, измеренная на высоте 2 м над землей.
Td - Температура точки росы - температура, при понижении до которой содержащийся в воздухе водяной пар достигнет насыщения.
f - Относительная влажность воздуха - влажноcть воздуха, измеренная на высоте 2 м над землей.
Te - Эффективная температура - температура, которую ощущает одетый по сезону человек в тени. Характеристика душности погоды. При расчете учитывается влияние влажности воздуха и скорости ветра на теплоощущения человека.
Tes - Эффективная температура на солнце - температура, которую ощущает человек, с поправкой на солнечный нагрев. Характеристика знойности погоды. Зависит от высоты солнца над горизонтом, облачности и скорости ветра. Ночью, в пасмурную погоду, а также при ветре 12 м/с и более поправка равна нулю.
P - Атмосферное давление - приведенное к уровню моря атмосферное давление.
Po - Атмосферное давление - измеренное на уровне метеостанции атмосферное давление.
Tmin - Минимальная температура - минимум температуры воздуха на высоте 2 м над землей.
Tmax - Максимальная температура - максимум температуры воздуха на высоте 2 м над землей.
R - Количество осадков - Количество выпавших осадков за период времени, мм. При наведении курсора мыши на число - период времени, за который выпало указанное количество осадков.
R24 - Количество осадков - Количество выпавших осадков за 24 часа, мм.
S - Снежный покров - Высота снежного покрова, см. При наведении курсора мыши на число - состояние снежного покрова и степень покрытия местности в баллах.